Regional Weather Roundup
Issued by NWS State College, PA

Home | Current Version | Previous Version | Graphics & Text | Print | Product List | Glossary Off
Versions: 1 2 3 4 5 6 7 8 9 10 11 12 13 14 15 16 17 18 19 20 21 22 23 24 25 26 27 28 29 30 31 32 33 34 35 36 37 38 39 40 41 42 43 44 45 46 47 48 49 50

000
ASUS41 KCTP 280510
RWRCTP

REGIONAL WEATHER ROUNDUP
NATIONAL WEATHER SERVICE STATE COLLEGE PA
100 AM EDT TUE JUL 28 2015

Note: "fair" indicates few or no clouds below 12,000 feet with no
significant weather and/or obstructions to visibility.

* = STATION THAT DOES NOT REPORT PRECIPITATION /E.G. RAIN...SNOW...ETC/
    THUNDER OR FOG.

PAZ002>004-007>009-013>016-020>023-029>032-280600-
WESTERN PENNSYLVANIA

CITY           SKY/WX    TMP DP  RH WIND       PRES   REMARKS
ERIE           CLEAR     68  59  73 CALM      30.05S
MEADVILLE      LGT RAIN  71  59  65 NE5       30.09R
FRANKLIN*      CLEAR     64  61  88 N3        30.10S
NEW CASTLE     FAIR      67  66  96 CALM      30.07R
BEAVER COUNTY  NOT AVBL
BUTLER*        CLEAR     66  64  94 NE5       30.08R
PITTSBURGH INT PTCLDY    76  64  66 N5        30.04S
PITTSBURGH     CLEAR     74  63  68 CALM      30.04R
INDIANA*       CLOUDY    72  70  94 CALM      30.10S
LATROBE        NOT AVBL
WASHINGTON CO* NOT AVBL
$$

PAZ004>006-010>012-017>019-024>028-033>037-041-042-045-046-049>053-280600-
CENTRAL PENNSYLVANIA

CITY           SKY/WX    TMP DP  RH WIND       PRES   REMARKS
BRADFORD       CLEAR     61  58  90 CALM      30.12S
DUBOIS         CLEAR     69  64  84 E3        30.09R
CLEARFIELD     CLEAR     66  63  90 N6        30.09R
JOHNSTOWN      CLEAR     71  66  84 CALM      30.11R HAZE
ALTOONA        CLOUDY    70  68  93 CALM      30.09R FOG
STATE COLLEGE  CLEAR     69  67  95 CALM      30.07S FOG
WILLIAMSPORT   CLEAR     70  67  90 N3        30.03R
SELINSGROVE    CLEAR     68  66  93 CALM      30.04S FOG
FT INDIANTOWN  PTCLDY    70  70  99 N2        30.03S FOG
CAPITAL CITY   CLEAR     73  70  90 CALM      30.02S
HARRISBURG     MOCLDY    75  71  87 E5        30.02S
YORK           CLEAR     70  69  97 CALM      30.03S FOG
$$

PAZ038>040-043-044-047-048-054-055-060>062-067>071-280600-
EASTERN PENNSYLVANIA

CITY           SKY/WX    TMP DP  RH WIND       PRES   REMARKS
SCRANTON       CLEAR     68  65  90 E5        30.05R
MOUNT POCONO   CLEAR     64  62  93 CALM      30.09S FOG
ALLENTOWN      CLEAR     74  70  87 W3        30.03S
QUAKERTOWN*    CLEAR     72  70  94 CALM      30.05R
READING        MOCLDY    74  70  87 CALM      30.02S
LANCASTER      CLEAR     72  71  97 CALM      30.03S FOG
COATESVILLE    CLEAR     72  72 100 CALM      30.05S FOG
POTTSTOWN      PTCLDY    71  71 100 CALM      30.05R
BLUE BELL      CLEAR     72  70  94 CALM      30.03R
DOYLESTOWN     CLEAR     71  69  93 CALM      30.03R
WILLOW GROVE   NOT AVBL
NORTH PHILA    CLEAR     75  67  76 SE5       30.03S
PHILADELPHIA   PTCLDY    77  71  82 S6        30.02S
$$



USA.gov is the U.S. government's official web portal to all federal, state and local government web resources and services.